sat.trackr.live / text

‹ back to catalog

VEERY-0G

NORAD 66675 · 2025-276K

PAYLOAD ACTIVE UNKNOWN

§ Identity

Operator
Country
US
Launch date
2025-11-28
Launch site
AFWTR
Launch vehicle
Mass (kg)
RCS (m²)

External: N2YO · Heavens-Above · Gunter

§ Orbital elements

Epoch: 2026-09-20T11:06:14.844384Z

Period
94.60 min
Inclination
97.4092°
Eccentricity
0.0006400
Mean motion
15.22244123 rev/d
Perigee alt
494.7 km
Apogee alt
503.5 km
Semi-major
6,877.2 km
B*
2.5513e-4
RAAN
335.6037°
Arg perigee
44.2642°
Mean anomaly
315.9105°
Rev number
4,491

§ Raw data

VEERY-0G1 66675U 25276K   26263.46267181  .00005801  00000+0  25513-3 0  99982 66675  97.4092 335.6037 0006400  44.2642 315.9105 15.22244123 44910

JSON: /api/v1/satellites/66675 · /tle

For live sub-satellite position, see the globe view (requires WebGL).

§ Visibility from observer

Set your observer location to see the next 7 days of passes ≥ 10°. The values pass through the URL so the page stays shareable.

No JS? Fill the form by hand. The geolocation button needs JavaScript.